Wind_Speed
89 91 81 83 87 87 87 80 74 74 81 80 65 57 62 62 59 62 61 58 58 59 49 53 53 53 61 67 62 59 58 54 47 41 36 36 35 30 26 26 23 23 23 26
88 75 78 85 86 85 81 79 73 72 79 74 66 60 59 60 58 57 55 56 58 52 50 52 51 55 62 63 57 54 57 47 40 34 35 34 30 24 22 22 18 21 28 34
82 67 80 77 78 78 77 74 70 71 81 70 61 55 58 59 54 55 54 57 56 48 49 47 51 55 62 58 54 57 52 41 37 34 34 31 24 20 17 17 23 29 34 36
80 77 75 68 69 73 70 72 73 73 76 64 57 54 55 57 53 51 55 54 48 45 44 48 52 57 56 52 53 57 44 35 33 32 32 24 18 13 18 24 28 30 36 33
63 61 56 56 55 71 55 71 68 69 66 58 49 52 60 54 51 53 49 47 42 39 41 48 53 53 49 50 55 44 37 33 31 31 25 17 14 13 20 25 28 33 35 30
72 70 72 60 61 60 55 50 44 43 43 45 50 50 58 50 40 42 40 36 34 37 44 49 51 48 42 48 45 38 32 29 29 26 20 15 12 15 23 29 28 34 32 28
69 65 62 57 51 50 42 32 23 22 37 43 53 45 47 37 39 35 32 29 33 41 42 43 45 44 46 49 38 34 28 25 26 20 16 12 9 18 25 28 29 34 27 22
74 66 57 53 51 51 41 38 32 35 43 48 49 22 36 26 31 28 27 32 35 37 34 41 41 39 40 44 37 30 23 22 22 15 13 6 11 20 26 31 31 23 20 14
80 71 63 57 57 56 45 29 37 38 42 43 22 23 22 30 27 24 24 28 30 27 34 38 35 36 44 35 30 23 19 20 16 12 6 4 13 22 27 33 21 22 19 11
84 75 66 64 61 58 45 42 37 36 33 21 16 25 32 28 25 25 25 21 22 26 31 30 31 39 32 27 24 18 17 17 12 7 2 7 14 21 28 26 20 24 19 11
85 76 72 67 50 52 47 39 30 26 23 18 25 33 30 29 26 29 23 19 19 25 25 24 29 25 24 23 22 18 14 13 10 3 6 6 12 20 31 26 22 26 22 15
83 77 74 66 57 54 51 43 37 26 21 27 34 39 33 33 33 27 18 16 19 20 18 17 19 22 20 20 17 14 12 12 7 2 6 3 13 20 30 26 21 23 26 22
85 76 75 70 59 48 43 48 40 37 39 36 34 33 34 34 31 21 14 19 19 13 15 14 16 18 17 16 15 10 12 10 7 4 7 4 9 17 24 33 19 18 24 23
81 73 70 64 53 46 47 51 48 41 38 38 36 35 31 28 23 17 18 21 16 12 12 12 13 17 15 14 13 8 11 9 8 4 8 2 4 10 17 23 34 21 16 22
78 75 71 67 60 54 50 54 50 44 43 37 42 37 30 30 27 19 24 20 14 10 10 10 11 15 17 14 14 8 8 10 8 5 8 5 1 5 12 18 25 30 19 16
81 78 72 68 66 60 52 51 54 52 53 51 50 42 34 32 26 25 27 23 16 9 10 10 8 13 17 14 14 11 8 9 9 4 2 6 4 2 10 13 16 24 25 18
87 81 77 71 70 64 55 47 50 55 52 50 47 42 36 30 32 30 29 26 20 10 9 9 7 12 16 16 13 11 8 8 9 6 3 4 6 1 4 8 13 18 22 22
91 84 78 76 70 63 58 52 48 45 46 44 47 42 39 36 36 33 31 27 21 12 9 8 6 10 15 16 13 11 8 8 8 11 6 3 7 5 1 4 10 12 19 22
94 87 81 80 71 67 61 55 48 44 42 41 39 33 31 31 30 33 31 27 20 13 10 5 6 8 12 15 14 10 9 8 8 12 14 10 5 4 3 1 5 9 15 18
94 91 86 82 76 70 63 56 52 48 44 38 34 30 27 28 32 35 32 28 19 14 8 4 4 6 9 13 15 14 11 9 8 10 13 15 13 8 1 3 2 5 9 12
97 94 90 87 81 73 66 62 60 53 46 40 35 30 31 36 39 32 27 27 20 14 11 6 3 4 6 11 14 15 13 10 10 9 11 13 15 16 12 7 5 5 7 10
99 96 92 90 85 80 72 69 60 48 46 41 37 33 36 43 43 36 30 27 23 16 11 9 4 3 4 7 12 14 16 12 9 9 9 11 12 12 13 13 12 9 11 12
101 97 95 92 87 77 74 65 58 55 51 48 43 39 38 46 48 39 34 32 25 20 15 15 8 5 2 4 8 11 13 15 11 8 7 9 10 10 10 10 11 11 9 9
100 99 97 94 87 81 75 68 63 60 56 54 50 46 43 46 49 43 39 36 31 24 21 18 16 10 5 3 5 8 11 12 13 11 7 4 7 7 9 9 8 6 6 6
102 99 97 93 89 86 78 72 67 63 62 59 54 51 49 47 44 46 43 40 38 33 27 24 21 18 12 8 5 5 7 10 10 11 11 7 3 1 3 5 5 4 5 3
97 98 97 95 92 88 82 76 70 66 65 64 60 56 51 50 47 44 44 44 41 40 34 29 24 23 19 13 11 6 6 6 8 9 10 11 10 6 2 2 2 2 3 3
Wind_Direction
251 252 257 253 255 254 254 257 260 261 261 266 270 267 268 276 276 279 283 288 292 297 299 297 306 312 317 321 319 316 314 313 313 313 308 316 317 319 327 324 331 336 332 325
252 254 251 252 254 256 257 258 258 256 258 262 266 270 270 271 275 277 282 287 292 296 295 300 307 315 319 318 314 316 316 314 313 312 314 321 321 329 328 332 341 334 324 323
252 247 251 256 257 257 256 255 251 250 257 263 266 267 264 270 273 276 282 288 292 292 297 303 312 316 320 313 316 315 316 313 310 315 319 321 326 329 328 337 335 335 329 321
250 251 254 255 256 256 254 251 252 254 260 265 264 261 263 265 269 274 279 286 288 293 299 308 313 319 313 315 317 315 311 309 315 319 321 323 325 331 334 342 337 335 326 322
244 245 248 248 249 256 254 258 258 262 267 268 257 253 257 261 264 272 279 285 290 296 302 308 312 317 314 318 312 310 307 311 317 323 325 326 332 333 342 340 336 336 331 325
243 244 252 250 251 258 262 263 260 263 260 250 244 243 251 260 261 269 277 282 296 298 304 308 312 308 315 312 310 310 311 316 320 327 330 329 340 343 343 335 335 338 331 324
244 246 245 244 245 253 260 259 242 245 238 234 240 238 249 252 261 266 273 286 295 298 303 302 302 306 312 308 307 308 313 321 325 331 327 326 345 348 347 340 337 334 334 327
230 232 234 240 241 242 241 237 215 215 216 225 232 220 247 248 253 263 279 292 290 298 290 291 298 308 304 298 306 306 314 327 329 328 321 343 358 358 352 346 341 348 339 352
228 229 229 230 230 232 228 219 211 205 207 217 215 240 245 249 259 274 283 289 295 283 284 289 305 303 296 301 303 301 324 335 334 330 332 26 15 6 356 351 2 1 7 21
225 223 224 224 225 234 241 231 225 207 211 212 214 238 243 256 261 271 286 285 281 275 280 296 295 294 300 306 302 310 325 342 343 338 125 48 20 10 6 5 13 13 23 50
223 225 225 226 229 233 239 240 225 222 222 210 231 234 250 249 263 270 282 271 262 269 286 294 290 315 306 306 306 307 331 346 349 339 132 60 19 26 17 15 33 31 39 65
222 222 226 227 224 225 227 233 227 202 215 218 229 245 250 259 263 272 275 245 251 267 290 293 315 311 309 305 305 317 347 346 349 139 156 78 42 34 28 26 44 52 51 58
219 220 223 225 228 230 225 222 222 223 218 227 239 246 255 258 265 274 270 224 245 265 281 303 327 325 312 307 306 334 360 347 19 116 157 108 64 42 35 32 43 61 57 58
218 217 224 225 221 218 215 222 224 220 225 236 239 242 245 250 262 261 213 220 234 255 276 304 322 338 326 314 308 347 5 7 46 103 183 135 67 37 30 30 39 43 61 65
215 214 217 220 222 219 213 212 219 219 224 224 231 233 231 248 260 236 196 214 220 241 269 303 339 336 340 323 316 342 6 20 39 58 207 194 135 24 27 25 29 35 51 67
215 214 214 215 218 217 214 212 214 219 226 230 238 242 244 255 245 222 191 210 211 218 255 291 342 356 345 332 334 327 346 27 30 46 186 209 226 11 7 12 22 35 37 55
214 214 213 213 215 216 214 209 215 220 228 234 240 235 232 234 223 209 192 211 213 211 250 284 350 8 353 347 330 351 342 17 35 36 85 181 206 192 46 31 19 23 32 45
213 214 214 214 214 216 208 208 208 208 216 227 235 242 238 220 216 201 192 207 211 204 239 282 356 12 1 358 346 1 6 7 45 51 50 221 193 172 143 57 34 28 41 37
212 213 214 217 213 210 208 209 210 214 210 218 226 224 230 232 218 202 194 201 200 194 230 285 342 3 8 5 10 10 14 19 34 54 55 58 106 187 219 88 78 48 46 47
209 212 213 217 213 211 209 208 207 207 201 207 214 210 216 225 209 210 200 198 192 200 213 258 324 350 13 9 12 18 16 37 30 58 62 56 56 64 358 289 48 30 38 68
207 210 212 216 214 211 211 208 206 206 206 200 201 200 205 214 215 216 207 205 196 202 214 228 288 338 2 15 8 20 18 37 34 39 62 64 59 55 57 79 79 66 90 110
205 208 210 214 214 209 209 210 207 207 212 203 195 194 201 211 216 217 215 214 212 201 222 243 257 306 5 21 13 13 18 21 41 36 47 61 64 66 60 56 67 77 101 121
204 209 211 214 215 212 211 210 208 204 208 205 196 192 199 206 217 216 217 218 217 212 213 246 252 275 353 8 30 12 13 18 22 38 40 50 59 71 76 76 73 79 94 119
202 206 211 214 216 213 212 209 208 205 206 209 201 193 196 205 215 219 220 224 222 218 215 238 255 256 287 332 11 28 13 12 16 24 34 50 58 60 72 76 78 80 88 105
200 203 208 212 213 213 212 210 208 205 205 209 207 200 197 205 204 213 220 223 230 229 228 229 249 260 266 283 317 353 20 3 360 14 23 19 15 96 81 57 52 59 65 70
201 202 206 209 211 214 212 211 207 208 207 209 208 208 202 204 206 210 217 217 223 231 228 227 231 247 259 268 283 298 331 351 351 346 6 8 3 9 25 15 250 25 26 47
Height
10664 10670 10700 10691 10699 10709 10714 10724 10739 10738 10725 10725 10751 10757 10750 10747 10754 10749 10748 10745 10745 10741 10735 10730 10726 10718 10710 10701 10693 10685 10675 10666 10658 10651 10645 10640 10633 10627 10621 10617 10612 10608 10604 10601
10646 10675 10667 10669 10677 10691 10706 10717 10726 10719 10707 10723 10737 10746 10740 10735 10740 10742 10739 10737 10736 10731 10727 10723 10718 10711 10702 10693 10686 10677 10668 10659 10651 10646 10638 10632 10627 10622 10617 10612 10609 10605 10600 10594
10637 10656 10643 10661 10667 10676 10686 10698 10704 10703 10690 10717 10730 10736 10727 10725 10732 10730 10728 10727 10725 10722 10719 10715 10710 10704 10695 10687 10679 10669 10660 10653 10645 10638 10631 10627 10623 10617 10613 10610 10606 10600 10594 10588
10623 10634 10642 10652 10656 10657 10667 10672 10682 10686 10685 10710 10719 10723 10718 10717 10720 10719 10719 10718 10716 10715 10711 10707 10702 10695 10687 10679 10668 10661 10655 10647 10639 10633 10628 10623 10618 10614 10611 10607 10601 10596 10589 10582
10627 10622 10628 10634 10638 10638 10655 10660 10672 10677 10689 10700 10708 10710 10699 10711 10708 10708 10710 10709 10707 10706 10703 10699 10694 10687 10678 10670 10663 10656 10650 10641 10634 10629 10624 10620 10615 10612 10609 10604 10598 10592 10584 10578
10603 10607 10612 10628 10627 10635 10642 10651 10661 10670 10681 10692 10688 10691 10688 10700 10697 10700 10702 10702 10700 10697 10696 10692 10685 10679 10672 10666 10658 10652 10644 10637 10631 10626 10621 10617 10614 10611 10607 10601 10595 10589 10581 10576
10593 10602 10608 10613 10621 10627 10634 10639 10651 10661 10672 10674 10670 10685 10684 10687 10688 10693 10696 10695 10693 10692 10688 10682 10677 10671 10666 10659 10653 10646 10639 10633 10628 10623 10619 10615 10613 10610 10605 10599 10593 10586 10579 10574
10571 10583 10594 10605 10614 10616 10622 10628 10638 10646 10653 10658 10659 10677 10673 10679 10681 10686 10689 10689 10687 10684 10680 10675 10672 10667 10662 10654 10648 10642 10635 10630 10625 10620 10617 10615 10613 10609 10604 10597 10590 10585 10579 10572
10553 10568 10577 10587 10595 10600 10611 10630 10629 10636 10641 10647 10665 10665 10670 10669 10675 10680 10683 10682 10680 10676 10674 10671 10667 10663 10657 10650 10643 10638 10631 10627 10622 10618 10616 10615 10613 10609 10604 10597 10592 10585 10578 10573
10537 10554 10565 10569 10579 10592 10610 10616 10627 10636 10640 10652 10658 10658 10658 10663 10669 10674 10676 10674 10673 10672 10670 10667 10663 10659 10652 10646 10640 10634 10629 10624 10620 10617 10616 10615 10613 10610 10605 10598 10593 10586 10580 10575
10524 10545 10553 10559 10585 10591 10600 10613 10626 10633 10641 10647 10650 10650 10654 10659 10664 10668 10669 10668 10668 10668 10666 10663 10659 10653 10648 10642 10637 10631 10627 10622 10618 10616 10615 10614 10614 10611 10606 10599 10596 10590 10584 10580
10512 10536 10543 10559 10572 10580 10593 10604 10612 10625 10635 10640 10640 10643 10651 10655 10658 10662 10661 10662 10665 10663 10662 10659 10654 10650 10644 10639 10634 10629 10625 10620 10617 10615 10614 10615 10614 10613 10609 10603 10599 10595 10590 10587
10497 10525 10534 10547 10567 10582 10596 10604 10611 10619 10623 10631 10634 10638 10643 10646 10651 10654 10654 10658 10660 10660 10659 10656 10652 10647 10641 10636 10631 10627 10623 10619 10615 10613 10614 10615 10615 10615 10612 10609 10603 10600 10596 10593
10491 10516 10533 10553 10570 10577 10591 10598 10605 10613 10622 10627 10625 10632 10635 10638 10643 10647 10649 10653 10656 10656 10655 10653 10650 10644 10638 10634 10629 10625 10622 10618 10614 10613 10614 10615 10616 10616 10615 10612 10608 10603 10601 10599
10483 10504 10521 10540 10555 10566 10574 10584 10595 10609 10608 10620 10611 10623 10627 10631 10635 10640 10646 10649 10652 10652 10653 10651 10648 10643 10637 10632 10628 10624 10621 10617 10613 10613 10614 10615 10616 10616 10616 10615 10612 10609 10605 10604
10472 10490 10510 10528 10540 10552 10564 10576 10589 10597 10601 10605 10609 10617 10622 10625 10629 10634 10641 10646 10649 10649 10650 10649 10646 10641 10636 10632 10628 10625 10622 10617 10614 10613 10614 10615 10616 10617 10617 10617 10616 10614 10610 10607
10458 10480 10498 10514 10527 10540 10555 10571 10580 10587 10591 10595 10603 10605 10612 10616 10622 10629 10638 10643 10646 10647 10648 10647 10644 10641 10637 10632 10628 10625 10622 10619 10615 10613 10613 10614 10615 10617 10618 10619 10618 10616 10614 10611
10450 10471 10487 10498 10515 10531 10547 10558 10567 10573 10580 10588 10590 10603 10605 10611 10616 10625 10635 10639 10643 10645 10645 10646 10642 10640 10638 10632 10628 10625 10622 10620 10618 10614 10613 10613 10614 10616 10617 10618 10619 10618 10617 10615
10437 10461 10477 10483 10508 10523 10535 10548 10561 10568 10576 10581 10589 10599 10604 10611 10618 10625 10632 10636 10640 10642 10643 10643 10641 10640 10638 10633 10629 10625 10623 10621 10619 10616 10614 10614 10613 10615 10617 10618 10619 10619 10619 10618
10430 10447 10462 10475 10496 10510 10528 10541 10551 10557 10565 10574 10584 10595 10602 10609 10617 10621 10628 10632 10636 10639 10640 10641 10641 10639 10637 10634 10630 10626 10624 10621 10620 10618 10616 10615 10615 10615 10616 10617 10618 10620 10619 10619
10414 10432 10449 10459 10479 10501 10517 10527 10536 10549 10562 10568 10579 10591 10598 10603 10609 10619 10628 10630 10633 10635 10637 10639 10640 10638 10637 10635 10632 10628 10625 10623 10621 10620 10618 10617 10616 10616 10617 10617 10617 10619 10620 10621
10402 10417 10435 10447 10463 10482 10501 10512 10534 10553 10559 10566 10575 10585 10592 10597 10603 10613 10622 10629 10631 10632 10634 10636 10638 10638 10636 10635 10633 10630 10627 10625 10622 10621 10620 10619 10619 10618 10619 10619 10619 10619 10620 10622
10390 10410 10424 10437 10452 10480 10493 10516 10533 10542 10551 10559 10568 10578 10585 10592 10596 10606 10614 10622 10628 10631 10631 10633 10636 10635 10636 10635 10633 10631 10629 10627 10625 10623 10622 10621 10620 10620 10621 10621 10621 10622 10622 10623
10379 10396 10412 10427 10449 10469 10488 10508 10520 10533 10541 10550 10559 10567 10577 10584 10591 10600 10608 10614 10622 10627 10630 10630 10631 10633 10633 10634 10633 10632 10630 10628 10627 10625 10623 10623 10622 10621 10621 10622 10623 10623 10624 10625
10366 10387 10403 10424 10438 10456 10477 10494 10508 10521 10532 10541 10551 10559 10567 10575 10585 10592 10600 10607 10613 10618 10624 10626 10627 10628 10630 10632 10632 10632 10631 10630 10628 10627 10625 10623 10623 10623 10623 10623 10624 10624 10624 10625
10360 10376 10392 10409 10426 10442 10463 10481 10498 10510 10522 10532 10542 10551 10560 10568 10577 10585 10591 10599 10605 10608 10614 10619 10622 10624 10626 10628 10630 10631 10632 10631 10630 10629 10627 10625 10624 10622 10622 10623 10624 10624 10624 10625